Skip Page Navigation
NASA JPL Caltech
NASA Logo - Jet Propulsion Laboratory + View the NASA Portal
+ Center for Near-Earth Object Studies
JPL Home Earth Solar System Stars & Galaxies Technology
JPL Solar System Dynamics
BODIES ORBITS EPHEMERIDES TOOLS PHYSICAL DATA DISCOVERY FAQ SITE MAP
JPL Small-Body Database Browser
Search: [ help ]  
277042 (2005 CK60)
Classification: Main-belt Asteroid          SPK-ID: 2277042
Ephemeris | Orbit Diagram | Orbital Elements | Mission Design | Physical Parameters | Discovery Circumstances | Close-Approach Data ]

[ show orbit diagram ]
Orbital Elements at Epoch 2459000.5 (2020-May-31.0) TDB
Reference: JPL 19 (heliocentric ecliptic J2000)
 Element Value Uncertainty (1-sigma)   Units 
e .08441095373818733 4.4772e-08  
a 2.234814807530375 1.2605e-08 au
q 2.046171958198512 1.0282e-07 au
i 5.040044230103068 4.7484e-06 deg
node 87.54789210096834 4.3886e-05 deg
peri 11.67876783530806 5.275e-05 deg
M 240.4750864856269 2.8714e-05 deg
tp 2459405.650775586887
(2021-Jul-10.15077559)
9.8756e-05 TDB
period 1220.283495070172
3.34
1.0324e-05
2.827e-08
d
yr
n .2950134140585899 2.4959e-09 deg/d
Q 2.423457656862237 1.3669e-08 au
  Orbit Determination Parameters
   # obs. used (total)      358  
   data-arc span      6679 days (18.29 yr)  
   first obs. used      2002-04-16  
   last obs. used      2020-07-29  
   planetary ephem.      DE431  
   SB-pert. ephem.      SB431-N16  
   condition code      0  
   norm. resid. RMS      .50637  
   source      ORB  
   producer      Otto Matic  
   solution date      2020-Aug-25 18:35:14  

Additional Information
 Earth MOID = 1.06331 au 
 Jupiter MOID = 2.67789 au 
 T_jup = 3.629 
[ show covariance matrix ]

Ephemeris | Orbit Diagram | Orbital Elements | Mission Design | Physical Parameters | Discovery Circumstances | Close-Approach Data ]

Physical Parameter Table
Parameter Symbol Value Units Sigma Reference Notes
absolute magnitude H 17.1   n/a MPO437261  

277042 (2005 CK60)          Discovered 2005-Feb-04 by LINEAR at Socorro
Reference: 20110517/Numbers.arcLast Updated: 2011-05-20

[ hide close-approach data ]
Close-Approach Data   ...sorted by Date/Time (TDB)
Date/Time (TDB) Time Uncertainty
(days_HH:MM)
Body Nominal Distance (au) Minimum Distance (au) Maximum Distance (au) V-relative (km/s) V-infinity (km/s) JD (TDB) Time Uncertainty (minutes) Semi-major axis (km) Semi-minor axis (km) range-LOV angle (deg) N-sigma BP Orbit Ref. Reference Modified
2096-Aug-13 20:05 00:08 Thisb 0.0284302637453295 0.0284041466257166 0.0284563930321892 4.51468638562327 4.51468633250226 2486834.336642734 7.84578148749058 1598.66978236637 45.7794684322382 35.4822624552754 53944.0490015337 T 19 CATAB v2.0f-lin.ifort 2020-Aug-25 18:35:37 2020-Aug-25 18:35
Ephemeris | Orbit Diagram | Orbital Elements | Mission Design | Physical Parameters | Discovery Circumstances | Close-Approach Data ]
ABOUT SSD CREDITS/AWARDS PRIVACY/COPYRIGHT GLOSSARY LINKS
FirstGov 2020-Sep-23 04:41 UT
(server date/time)  
NASA Home Page
Site Manager:   Ryan S. Park
Webmaster  Alan B. Chamberlin